Location: Vancouver
(49.2500°N, 123.1330°W)
Time: 02:03:05
(UTC-07:00)

ISS - Visible Passes

Search period start: 01 November 2014 00:00
Search period end: 10 November 2014 23:00
Orbit: 412 x 417 km, 51.6° (Epoch: 01 November)

Date Brightness Start Highest point End Pass type
(mag) Time Alt. Az. Time Alt. Az. Time Alt. Az.
08 Nov -0.3 06:27:16 10° S 06:29:38 18° SE 06:32:00 10° E visible
09 Nov -0.1 05:39:08 10° SSE 05:40:23 12° SE 05:41:38 10° ESE visible
10 Nov -1.7 06:23:57 10° SW 06:27:02 37° SSE 06:30:09 10° E visible
